Date String (YYYY-MM-DD hh:mm:ss) UTC,Instrument flags,Ambient pressure (hPa),Sample flow (lpm),Bypass flow (lpm),Sample temperature (°C),Ambient temperature (°C),ASC tube jacket temperature (°C),LED temperature (°C),Box temperature (°C),Sample RH (%),Span deviation,Mass concentration (μg/m³),Mass concentration (μg/m³),Mass concentration (μg/m³)
DateTimeUTC,F1_M11,P_M11,Q1_M11,Q2_M11,T1_M11,T2_M11,T3_M11,T4_M11,T5_M11,U1_M11,ZSPAN_M11,X2_M11,X0_M11,X1_M11
2021-12-25 20:00:00,,0818.0,5.01,0.00,24.3,23.4,00.0,33.2,26.1,08.6,0000.0,0000.49,0000.83,0000.38
2021-12-25 20:01:00,,0818.1,4.99,0.00,24.3,23.4,00.0,33.2,26.1,08.7,0000.0,0000.48,0000.80,0000.38
2021-12-25 20:02:00,,0818.2,5.00,0.00,24.3,23.5,00.0,33.2,26.1,08.6,0000.0,0000.48,0000.80,0000.38
2021-12-25 20:03:00,,0818.0,5.00,0.00,24.4,23.5,00.0,33.2,26.2,08.6,0000.0,0000.48,0000.81,0000.37
2021-12-25 20:04:00,,0818.0,4.99,0.00,24.4,23.5,00.0,33.2,26.1,08.3,0000.0,0000.48,0000.82,0000.36
2021-12-25 20:05:00,,0818.0,5.01,0.00,24.4,23.5,00.0,33.3,26.2,08.5,0000.0,0000.51,0000.84,0000.37
2021-12-25 20:06:00,,0818.2,4.99,0.00,24.4,23.5,00.0,33.3,26.2,08.6,0000.0,0000.49,0000.84,0000.37
2021-12-25 20:07:00,,0818.1,5.01,0.00,24.4,23.5,00.0,33.3,26.2,08.5,0000.0,0000.50,0000.86,0000.37
2021-12-25 20:08:00,,0817.9,5.01,0.00,24.4,23.5,00.0,33.3,26.3,08.1,0000.0,0000.50,0000.86,0000.37
2021-12-25 20:09:00,,0818.0,4.99,0.00,24.5,23.6,00.0,33.3,26.3,08.4,0000.0,0000.49,0000.85,0000.36
2021-12-25 20:10:00,,0818.0,5.00,0.00,24.5,23.5,00.0,33.3,26.2,08.5,0000.0,0000.48,0000.82,0000.36
2021-12-25 20:11:00,,0818.0,5.00,0.00,24.5,23.5,00.0,33.3,26.2,08.5,0000.0,0000.48,0000.82,0000.36
2021-12-25 20:12:00,,0818.0,5.01,0.00,24.5,23.5,00.0,33.4,26.3,08.5,0000.0,0000.47,0000.79,0000.36
2021-12-25 20:13:00,,0818.0,5.00,0.00,24.5,23.6,00.0,33.4,26.3,08.4,0000.0,0000.46,0000.77,0000.36
2021-12-25 20:14:00,,0818.0,5.00,0.00,24.5,23.6,00.0,33.4,26.3,08.1,0000.0,0000.45,0000.74,0000.36
2021-12-25 20:15:00,,0818.0,5.00,0.00,24.5,23.6,00.0,33.4,26.3,08.0,0000.0,0000.47,0000.79,0000.37
2021-12-25 20:16:00,,0818.0,5.01,0.00,24.5,23.7,00.0,33.4,26.3,08.1,0000.0,0000.44,0000.65,0000.37
2021-12-25 20:17:00,,0818.0,4.99,0.00,24.5,23.7,00.0,33.4,26.3,08.1,0000.0,0000.44,0000.61,0000.37
2021-12-25 20:18:00,,0818.0,5.01,0.00,24.5,23.7,00.0,33.4,26.3,07.8,0000.0,0000.46,0000.68,0000.37
2021-12-25 20:19:00,,0818.0,5.01,0.00,24.5,23.6,00.0,33.4,26.3,07.8,0000.0,0000.47,0000.71,0000.37
2021-12-25 20:20:00,,0818.0,5.00,0.00,24.5,23.6,00.0,33.4,26.2,07.8,0000.0,0000.48,0000.71,0000.38
2021-12-25 20:21:00,,0818.0,5.00,0.00,24.5,23.6,00.0,33.4,26.3,07.7,0000.0,0000.50,0000.74,0000.39
2021-12-25 20:22:00,,0818.0,5.00,0.00,24.6,23.6,00.0,33.5,26.3,07.7,0000.0,0000.51,0000.77,0000.40
2021-12-25 20:23:00,,0818.0,5.02,0.00,24.6,23.7,00.0,33.5,26.3,07.5,0000.0,0000.52,0000.78,0000.41
2021-12-25 20:24:00,,0818.0,4.99,0.00,24.6,23.7,00.0,33.5,26.3,07.4,0000.0,0000.53,0000.78,0000.42
2021-12-25 20:25:00,,0818.0,5.01,0.00,24.6,23.6,00.0,33.5,26.3,07.3,0000.0,0000.55,0001.10,0000.41
2021-12-25 20:26:00,,0818.0,5.01,0.00,24.5,23.7,00.0,33.5,26.3,07.4,0000.0,0000.55,0002.49,0000.42
2021-12-25 20:27:00,,0818.0,5.01,0.00,24.5,23.7,00.0,33.5,26.2,07.5,0000.0,0000.55,0002.87,0000.42
2021-12-25 20:28:00,,0818.0,5.00,0.00,24.5,23.6,00.0,33.5,26.2,07.5,0000.0,0000.54,0002.84,0000.41
2021-12-25 20:29:00,,0818.0,5.00,0.00,24.5,23.6,00.0,33.5,26.1,07.4,0000.0,0000.52,0002.76,0000.41
2021-12-25 20:30:00,,0818.0,5.01,0.00,24.5,23.5,00.0,33.5,26.1,07.4,0000.0,0000.54,0002.79,0000.41
2021-12-25 20:31:00,,0818.0,4.99,0.00,24.5,23.5,00.0,33.5,26.1,07.5,0000.0,0000.55,0002.83,0000.42
2021-12-25 20:32:00,,0817.9,5.00,0.00,24.5,23.5,00.0,33.5,26.1,07.4,0000.0,0000.55,0002.82,0000.42
2021-12-25 20:33:00,,0818.0,5.01,0.00,24.5,23.5,00.0,33.5,26.2,07.5,0000.0,0000.55,0002.83,0000.42
2021-12-25 20:34:00,,0818.0,5.01,0.00,24.5,23.5,00.0,33.5,26.2,07.4,0000.0,0000.58,0002.93,0000.42
2021-12-25 20:35:00,,0818.0,4.98,0.00,24.5,23.5,00.0,33.5,26.2,07.4,0000.0,0000.59,0002.97,0000.42
2021-12-25 20:36:00,,0818.0,5.00,0.00,24.5,23.5,00.0,33.4,26.1,07.5,0000.0,0000.59,0002.77,0000.42
2021-12-25 20:37:00,,0818.0,5.00,0.00,24.4,23.5,00.0,33.4,26.1,07.4,0000.0,0000.59,0001.48,0000.43
2021-12-25 20:38:00,,0817.9,4.99,0.00,24.4,23.4,00.0,33.4,26.1,07.2,0000.0,0000.59,0001.17,0000.43
2021-12-25 20:39:00,,0818.0,5.00,0.00,24.4,23.4,00.0,33.4,26.1,07.2,0000.0,0000.62,0002.07,0000.44
2021-12-25 20:40:00,,0818.0,5.00,0.00,24.4,23.5,00.0,33.4,26.1,07.3,0000.0,0000.62,0002.07,0000.45
2021-12-25 20:41:00,,0818.0,5.01,0.00,24.4,23.5,00.0,33.4,26.0,07.4,0000.0,0000.62,0002.11,0000.44
2021-12-25 20:42:00,,0818.0,4.99,0.00,24.4,23.5,00.0,33.4,26.0,07.5,0000.0,0000.60,0002.08,0000.44
2021-12-25 20:43:00,,0818.0,4.99,0.00,24.4,23.5,00.0,33.4,26.0,07.4,0000.0,0000.61,0002.12,0000.44
2021-12-25 20:44:00,,0818.0,4.99,0.00,24.4,23.5,00.0,33.4,26.0,07.3,0000.0,0000.60,0002.09,0000.43
2021-12-25 20:45:00,,0818.0,5.00,0.00,24.3,23.4,00.0,33.4,26.0,07.3,0000.0,0000.57,0002.01,0000.43
2021-12-25 20:46:00,,0818.0,5.00,0.00,24.3,23.5,00.0,33.4,26.0,07.3,0000.0,0000.56,0001.95,0000.43
2021-12-25 20:47:00,,0818.0,5.00,0.00,24.3,23.5,00.0,33.4,25.9,07.3,0000.0,0000.55,0001.85,0000.43
2021-12-25 20:48:00,,0818.0,5.00,0.00,24.3,23.5,00.0,33.4,25.9,07.3,0000.0,0000.56,0001.81,0000.42
2021-12-25 20:49:00,,0817.9,5.00,0.00,24.3,23.5,00.0,33.3,25.9,07.3,0000.0,0000.55,0001.74,0000.42
2021-12-25 20:50:00,,0818.0,5.00,0.00,24.3,23.5,00.0,33.3,25.9,07.3,0000.0,0000.53,0000.87,0000.42
2021-12-25 20:51:00,,0818.0,5.01,0.00,24.3,23.5,00.0,33.3,25.9,07.3,0000.0,0000.53,0000.91,0000.41
2021-12-25 20:52:00,,0818.0,5.01,0.00,24.3,23.5,00.0,33.3,25.9,07.6,0000.0,0000.53,0000.90,0000.41
2021-12-25 20:53:00,,0818.0,4.98,0.00,24.3,23.4,00.0,33.3,25.9,07.6,0000.0,0000.55,0000.93,0000.42
2021-12-25 20:54:00,,0818.0,5.01,0.00,24.3,23.4,00.0,33.3,26.0,07.8,0000.0,0000.55,0000.93,0000.42
2021-12-25 20:55:00,,0818.0,4.99,0.00,24.3,23.4,00.0,33.3,26.0,07.9,0000.0,0000.57,0001.05,0000.41
2021-12-25 20:56:00,,0818.1,5.01,0.00,24.3,23.5,00.0,33.3,26.0,07.9,0000.0,0000.58,0001.11,0000.41
2021-12-25 20:57:00,,0818.0,5.00,0.00,24.3,23.5,00.0,33.3,26.1,07.8,0000.0,0000.59,0001.13,0000.43
2021-12-25 20:58:00,,0818.0,5.01,0.00,24.3,23.5,00.0,33.3,26.1,07.5,0000.0,0000.60,0001.10,0000.44
2021-12-25 20:59:00,,0818.0,4.98,0.00,24.4,23.6,00.0,33.3,26.1,07.4,0000.0,0000.58,0001.00,0000.44
